Details From KPVC - Provincetown Muni
To KRKD - Knox Co Rgnl
Flight Number -
Tags Decoded
Created
Modified
Stats Distance 144 nm / 267 km
Max Altitude 0 ft / 0 m
Waypoints 7
Social Downloads 2
Likes 0
Share VATSIM

Download

Looking for another format? Having issues loading an existing format? Contact us
Advertisement - Login to hide

Notes

Decoded

Route

KPVC SCUPP WEEZE CEKAY MESHL ANCOR KRKD

ID Type Via Altitude Latitude Longitude Leg Dist Tot Dist Heading (true) Name
O KPVC APT - 0 ft / 0 m 42.06983˚ -70.22628˚ - 0 nm - -
SCUPP FIX - 0 ft / 0 m 42.60306˚ -70.23039˚ 32 nm 32 nm 360° / 360° -
WEEZE FIX - 0 ft / 0 m 42.84804˚ -70.34335˚ 15 nm 47 nm 341° / 341° -
CEKAY FIX - 0 ft / 0 m 43.02072˚ -70.42356˚ 10 nm 58 nm 341° / 341° -
MESHL FIX - 0 ft / 0 m 43.32002˚ -70.16334˚ 21 nm 79 nm 32° / 32° -
ANCOR FIX - 0 ft / 0 m 43.99775˚ -69.11753˚ 61 nm 140 nm 48° / 49° -
O KRKD APT - 0 ft / 0 m 44.05626˚ -69.10066˚ 3 nm 144 nm 12° / 12° KNOX CO RGNL

Altitude Profile

Advertisement - Login to hide

KPVC

Details ICAO KPVC (PVC)
Name Provincetown Muni
Region United States
Timezone America/New_York (UTC-4.0)
Stats Elevation 8 ft / 2 m (AMSL)
Location 42.072281° -70.220737°
Runways 1
Magnetic Variation 14.877° W

METAR

KPVC 221356Z AUTO VRB04KT 10SM CLR 19/12 A3017 RMK AO2 SLP217 T01940122

Decode

TAF

Not found

Departure Runways

ID Width Length Bearing (true) Bearing (mag) Surface Threshold Offset Overrun Length
07 100 ft / 30 m 3,495 ft / 1,065 m 59.23° 74.11° Asphalt 0 ft / 0 m 0 ft / 0 m
25 100 ft / 30 m 3,495 ft / 1,065 m 239.23° 254.11° Asphalt 0 ft / 0 m 0 ft / 0 m

KRKD

Details ICAO KRKD (RKD)
Name KNOX CO RGNL
Region United States
Timezone America/New_York (UTC-4.0)
Stats Elevation 56 ft / 17 m (AMSL)
Location 44.060266° -69.099207°
Runways 2
Magnetic Variation 15.806° W

METAR

KRKD 221356Z AUTO 11009KT 10SM CLR 15/02 A3019 RMK AO2 SLP226 T01500022

Decode

TAF

TAF KRKD 221120Z 2212/2312 16005KT P6SM BKN150 FM221500 19009KT P6SM OVC100 FM222100 17008KT P6SM -SHRA OVC050 FM230200 22005KT P6SM OVC025 AMD LTD TO CLD VIS AND WIND

Decode

Destination Runways

ID Width Length Bearing (true) Bearing (mag) Surface Threshold Offset Overrun Length
03 100 ft / 30 m 3,903 ft / 1,190 m 13.39° 29.20° Asphalt 0 ft / 0 m 0 ft / 0 m
13 100 ft / 30 m 4,997 ft / 1,523 m 110.98° 126.79° Asphalt 0 ft / 0 m 0 ft / 0 m
21 100 ft / 30 m 3,903 ft / 1,190 m 193.39° 209.20° Asphalt 0 ft / 0 m 0 ft / 0 m
31 100 ft / 30 m 4,997 ft / 1,523 m 291.00° 306.81° Asphalt 0 ft / 0 m 0 ft / 0 m

Approach Navaids

Runway Type Ident Frequency Range Bearing (true) Bearing (mag) Slope Elevation
13 Localiser IRMZ 111.70 MHz 18 nm / 33 km 110.99° 126.79° - 54 ft / 16 m (AMSL)
13 Glidescope IRMZ 111.70 MHz 10 nm / 19 km 110.99° 126.79° 3.00° 43 ft / 13 m (AMSL)
13 DME IRMZ 111.70 MHz 18 nm / 33 km - - - 54 ft / 16 m (AMSL)